Daniel Oduber Quiros International Airport

Jump to: basic info | weather | frequencies | runways | comments

Related pages: nearby airports | nearby navaids | notams | map

Basic information (top)

Codes: LIR MRLB
Location: lon 10.593300, lat -85.544403, elev 270 ft / 82 m msl
Status: medium_airport
Scheduled airline service: yes
Links: Wikipedia Mobile

Weather (top)

Current conditions (rec'd 2014/08/21 02:00Z):

MRLB 210200Z 10006KT 9999 FEW025 OVC120 27/20 A2991

Airport forecast (rec'd 2014/08/20 00:12Z):

TAF MRLB 202300Z 2100/2124 08010KT 9999 FEW030 SCT140 TX33/2118Z TN22/2110Z 
      TEMPO 2116/2124 RA FEW030TCU

Frequencies (top)

Verify before use: may be inaccurate or out of date.

APP: 119.8 MHz (LIBERIA APP)
GND: 121.7 MHz (GND)
RDO: 126.8 MHz (COCO RDO)
TWR: 118.8 MHz (LIBERIA TWR)

Runways (top)

07/25: 9,022 x 148 ft (2,750 x 45 m) — paved — lighted

Latest comments (top)

Great Facility but: Make sure you either speak fluent ... [read]

Terminal building: Nice new facility opened in 2011 [read]

More... (top)

See also NOTAMs and nearby airports and navaids, or visit the Daniel Oduber Quiros International Airport page at the main OurAirports website..